Terminal Aerodrome Forecast
Issued by NWS

Home | Current Version | Previous Version | Text Only | Print | Product List | Glossary On
Versions: 1 2 3 4 5 6 7 8 9 10 11 12 13 14 15 16 17 18 19 20 21 22 23
000
FTUS43 KEAX 302300
TAFSTJ
TAF
KSTJ 302320Z 3100/3124 16003KT P6SM SCT045
      TEMPO 3110/3114 2SM BR SKC
     FM311400 18013G25KT P6SM BKN250=

USA.gov is the U.S. government's official web portal to all federal, state and local government web resources and services.